THORAD AGENA D DEB, 19150

Orbit data source: Space-Track

THORAD AGENA D DEB, 19150 is space debris in SSO originally from a launch on Wed, 08 Apr 1970 UTC launched from the Air Force Western Test Range (AFWTR). Debris objects in space refer to the collection of defunct objects orbiting the Earth. Examples of debris include non-operational satellites, rocket bodies, and fragments generated from explosions, collisions, or faulty payload assembly.

Loading next visibility...
Identifier
19150, 1970-025PS
Orbit
SSO
Country
Flag of USUS
Related business
Manufacturer
Unknown
Mission
Spacecraft
Bus & Motor
Unknown
Mass
Unknown
Launch date (UTC)
1970-04-08 (56 years ago)
Launch vehicle
Unknown
Launch site
Air Force Western Test Range (AFWTR)
Object type
Payload
Rocket body
Debris
Shape & HBR
Unknown shape, 0.1 m
Radar Cross Section
Medium (>0.1 m² and <1 m²)

Expand to show TLE details & history
Last TLE update: 17 hours ago

TLE from 17 hours ago
0 THORAD AGENA D DEB
1 19150U 70025PS  26255.63154568  .00006734  00000-0  27815-2 0  9993
2 19150 100.3287 220.4986 0020256 283.5367  76.3551 14.27022666917874
Epoch: 2026-09-12T15:09Z
TLE epoch observation values (Epoch: 2026-09-12T15:09:25.546Z)
Latitude
-0.00005°
Longitude
1.5044°
Altitude
801.164 km
Speed
7.455 km/s
True Right ascension
14h 41m 59s
True Declination
0° 00' 00"
Sunlit
Object was in daylight at epoch
Visualization orbit readout
Latitude
Unknown
Longitude
Unknown
Altitude
Unknown
Speed
Unknown
Apparent Right ascension
Unknown
Apparent Declination
Unknown
Sunlit
N/A
Visualization observer readout
Local Sidereal Time
00:45:32
Azimuth
Unknown
Elevation
Unknown
Doppler factor
Unknown
Orbital elements
Apogee altitude
813.472 km
Perigee altitude
784.396 km
Semi-major axis
7,177.071 km
Eccentricity
0.00203
Inclination
100.3287°
RAAN
220.4986°
Arg. of periapsis
283.5367°
True anomaly
76.5808°
Mean anomaly
76.3551°
Eccentric anomaly
76.46794°
Mean motion
3.56962 °/min
Orbital period
100.85 mins
BSTAR
0.0027815
Loading maneuver chart data...
Computing Atmospheric mass density...

Documentation

Showing up to 5 results
|